IRIDIUM 18 [P]

Last updated on June 12, 2018, 12:20 a.m. UTC

1 24872U 97034D   18162.04170180  .00087371  57946-6  29884-3 0  9992
2 24872  86.3892 231.5941 0322270 342.9421  16.1188 15.39777647 95563

Satellite is not in orbit.